Wind_Speed
13 18 23 27 26 25 25 24 23 22 24 25 25 24 23 23 21 21 20 19 17 17 18 18 17 16 17 17 17 16 9 10
14 14 18 19 21 24 24 23 23 24 23 24 23 23 22 22 22 21 20 18 16 15 18 18 18 17 17 16 16 15 9 9
13 13 15 18 18 20 23 22 22 23 23 23 22 18 19 20 20 20 20 18 16 15 18 18 18 17 16 16 15 11 10 10
14 13 15 17 17 17 19 19 20 20 20 21 20 19 19 19 20 21 20 18 16 16 17 18 17 14 14 16 13 10 11 11
17 16 14 16 17 17 20 20 21 22 22 22 22 21 19 21 18 19 19 19 15 16 17 17 17 15 15 15 14 12 12 11
14 19 19 19 18 16 17 19 21 23 25 25 24 24 22 22 20 20 20 20 18 19 18 18 18 16 15 16 15 14 12 11
10 16 19 22 23 21 20 23 22 23 22 26 26 23 23 24 23 21 21 20 20 20 19 20 18 17 17 16 16 15 13 12
9 13 19 20 24 26 26 24 25 24 24 25 28 26 25 24 24 24 23 21 21 20 20 20 19 18 18 17 17 16 15 14
10 13 17 21 25 25 25 28 26 25 27 26 29 28 25 24 26 25 25 24 22 21 20 19 18 18 18 18 17 17 17 17
13 12 16 21 24 25 26 27 27 28 25 26 27 35 29 26 26 28 25 25 24 24 22 20 20 19 18 16 16 16 17 17
19 16 15 21 24 26 27 26 27 28 27 28 29 31 33 28 27 27 27 28 27 24 24 23 21 19 17 16 16 17 18 18
22 19 17 17 24 25 26 26 27 29 29 29 31 33 33 32 28 25 29 29 27 27 24 24 22 19 18 17 17 17 17 19
19 21 16 16 20 25 26 28 29 32 32 32 32 32 33 33 30 28 33 35 33 29 25 24 22 19 14 14 14 14 17 21
21 21 20 18 18 23 26 27 30 32 33 33 32 32 32 35 34 33 35 31 31 31 32 22 19 25 13 8 4 12 20 22
23 24 23 23 21 21 25 28 28 29 30 30 33 35 36 39 36 33 34 33 33 33 33 30 23 25 27 13 5 8 9 15
24 25 26 24 23 23 25 29 30 31 30 32 35 37 36 36 36 37 36 35 34 36 33 33 26 21 24 28 23 9 6 4
24 25 27 25 24 25 27 30 31 30 30 31 34 34 38 37 37 37 37 37 37 33 33 33 33 25 26 18 24 22 19 7
27 27 26 27 24 25 29 32 35 31 31 30 31 33 35 39 39 38 39 37 36 38 34 34 32 28 25 26 23 19 19 14
28 28 29 27 27 26 27 33 39 37 33 31 28 29 31 35 38 39 38 38 35 34 33 33 35 32 28 27 24 24 20 22
27 28 29 30 30 28 27 29 34 38 34 31 30 27 30 33 39 38 38 36 35 36 35 34 33 33 31 28 26 24 24 25
Wind_Direction
192 186 193 194 190 188 188 187 188 188 187 187 189 192 191 193 192 189 189 189 193 189 185 180 181 181 180 178 176 172 183 179
196 188 186 193 194 194 194 193 192 190 192 193 194 194 195 196 194 192 192 197 201 194 190 185 184 183 183 183 182 175 187 184
191 191 186 192 196 196 197 199 197 196 193 196 196 193 197 199 194 201 196 199 203 200 194 190 187 183 184 189 182 187 198 202
193 192 197 190 193 198 196 199 197 198 195 195 193 197 200 202 201 204 200 202 204 202 196 192 184 185 189 192 190 202 206 208
198 196 202 196 192 196 195 201 202 202 203 199 196 199 200 201 203 203 202 204 199 198 194 191 195 196 195 199 204 209 212 214
226 204 201 205 199 199 196 200 203 202 201 203 200 199 200 201 203 202 202 203 202 194 196 198 204 209 207 207 210 212 216 219
241 224 219 209 202 205 206 205 211 211 207 201 200 202 201 199 203 204 204 205 204 201 199 199 204 211 213 215 215 217 221 225
268 246 232 223 217 207 208 211 212 211 210 209 203 207 206 201 203 204 207 206 206 205 204 202 203 212 217 219 222 221 225 225
273 249 241 230 226 223 217 213 211 216 210 210 217 211 213 204 200 207 206 208 204 203 207 206 206 209 219 221 225 226 229 227
289 266 248 235 229 226 224 221 216 215 214 209 215 219 214 217 207 205 207 206 202 202 201 206 211 208 216 220 224 230 233 232
298 290 260 243 235 231 226 224 223 220 216 210 210 215 211 213 218 210 204 204 200 205 205 204 212 210 213 213 225 229 236 237
308 300 286 259 241 231 231 228 226 224 220 215 211 210 211 207 216 214 207 206 203 201 207 206 209 209 215 221 228 232 237 238
315 310 305 285 253 234 231 225 224 224 222 220 216 208 208 209 214 214 212 208 208 201 197 198 206 206 197 219 228 230 238 241
319 312 309 300 279 255 237 232 228 228 225 222 218 212 208 210 211 213 206 203 208 203 198 193 194 193 192 195 209 232 238 240
317 312 307 299 291 278 260 236 233 226 226 222 215 214 211 210 208 206 205 202 204 207 204 197 194 196 205 197 208 228 221 228
315 310 306 301 292 279 259 249 228 224 222 220 220 216 216 212 210 203 205 204 206 207 206 205 198 198 200 221 233 251 193 207
318 311 306 304 296 280 267 255 243 227 221 221 221 220 216 212 209 206 206 205 208 205 205 205 208 202 200 207 223 228 231 249
324 318 311 309 302 282 269 259 249 230 223 217 219 217 212 210 207 207 208 206 207 204 207 207 208 206 204 216 210 210 224 225
327 322 314 310 303 289 272 264 249 240 228 218 216 212 212 208 202 202 208 206 205 204 205 207 210 206 210 213 221 223 226 228
326 319 315 316 308 295 280 264 251 238 230 225 219 209 215 215 207 203 204 203 204 204 205 207 209 212 213 213 220 223 228 234
Height
764 763 767 770 772 774 777 780 784 788 791 793 795 797 799 802 804 806 809 811 811 812 813 814 816 819 821 822 824 825 827 829
764 765 765 770 772 774 778 781 784 786 791 793 795 797 800 802 804 806 808 811 812 813 815 815 817 819 822 824 825 827 828 829
761 764 766 768 772 773 777 780 783 786 788 792 795 799 800 802 804 805 808 809 811 813 816 817 818 820 822 825 826 828 828 829
758 762 765 766 769 773 776 779 782 785 787 789 793 796 799 802 803 805 806 808 810 813 816 818 820 823 824 826 827 827 828 829
754 758 763 765 768 771 773 777 779 781 785 787 789 793 796 799 801 804 806 807 809 812 815 818 821 822 823 825 825 827 826 827
756 754 757 762 764 767 769 773 776 778 779 784 786 788 791 794 797 800 803 805 807 809 812 815 819 821 821 823 824 825 825 827
752 754 757 758 759 763 765 767 771 775 776 778 782 783 786 789 792 795 798 801 804 806 807 811 815 818 819 821 822 823 824 826
749 751 753 755 757 754 757 762 764 768 771 773 775 779 781 783 787 790 793 797 799 802 805 807 810 814 817 818 819 821 823 825
746 746 749 751 752 753 753 754 759 762 761 766 771 775 779 779 781 786 788 791 795 799 802 805 807 809 813 815 817 819 820 821
744 744 744 745 746 748 749 751 752 755 757 760 764 768 773 778 777 779 784 787 790 794 797 801 803 805 808 812 814 816 817 818
740 741 739 740 741 742 743 745 748 749 751 753 755 761 764 769 774 774 779 782 785 789 792 795 799 801 803 807 810 812 814 815
737 735 737 736 736 735 737 738 741 744 744 744 746 750 757 761 766 769 772 777 779 783 787 790 794 797 800 803 805 808 811 811
734 733 733 734 731 728 728 728 732 734 735 736 738 742 748 754 759 763 763 767 771 776 781 786 790 793 797 799 801 803 805 807
733 732 729 730 727 723 721 721 722 726 726 728 733 738 740 745 748 753 753 759 767 769 773 779 784 788 792 796 797 799 799 801
734 731 728 725 725 721 715 714 715 716 717 722 725 728 729 733 736 742 746 751 758 762 768 770 775 780 784 787 790 786 786 792
732 728 725 722 721 717 713 704 702 703 709 715 716 718 721 725 730 733 738 743 750 753 760 764 769 773 779 780 779 779 782 786
730 725 721 718 716 714 709 702 694 696 700 703 706 710 713 717 720 727 730 735 740 746 752 758 762 766 769 773 776 778 780 782
727 721 716 712 710 708 704 697 690 687 688 692 696 700 703 707 711 718 723 727 733 737 744 750 755 760 763 767 768 771 772 777
725 719 712 709 704 700 696 690 685 680 679 681 685 691 694 698 703 709 716 719 726 733 738 743 748 753 757 760 762 764 766 769
726 720 710 703 698 692 687 681 675 672 672 673 676 681 688 694 697 701 708 713 719 724 730 736 741 746 750 753 755 757 760 761